User: anonymous
Location: Hickory_Viewmont
(35.7830°N, 81.3170°W)
Time: 07:20:06
(UTC-04:00)
Language:

Okean-O - Orbit

View from above orbital plane
View from above orbital plane
View from above satellite
View from above satellite

Ground track
Ground track

The orbit data is extracted from the following two-line orbital elements,

1 25860U 99039A   14292.49937954  .00001723  00000-0  26091-3 0  3942
2 25860 098.0603 255.7465 0001620 084.1604 026.4371 14.75469617820480
Epoch (UTC): 19 October 2014 11:59:06
Eccentricity: 0.0001620
inclination: 98.0603°
perigee height: 642 km
apogee height: 645 km
right ascension of ascending node: 255.7465°
argument of perigee: 84.1604°
revolutions per day: 14.75469617
mean anomaly at epoch: 26.4371°
orbit number at epoch: 82048

The dashed part of the orbit path shows where the satellite is in the earth's shadow,  

DLR